Location: Armstrong Village
(14.3346°N, 120.9854°E)
Time: 11:54:28
(UTC+00:00)

Resurs 1-3 - Pass Details

Date: 13 January 2026
Orbit: 612 x 615 km, 97.7° (Epoch: 17 February)

Event Time Altitude Azimuth Distance (km) Brightness Sun altitude
Rises 10:23:06 0° 157° (SSE) 2,872 7.0 -9.4°
Reaches altitude 10° 10:25:20 10° 152° (SSE) 1,968 6.1 -9.9°
Maximum altitude 10:29:28 49° 78° (ENE) 795 3.7 -10.8°
Drops below altitude 10° 10:33:36 10° 3° (N) 1,971 5.9 -11.8°
Sets 10:35:50 0° 357° (N) 2,876 6.8 -12.3°
